Regional Weather Roundup
Issued by NWS

Home | Current Version | Previous Version | Text Only | Print | Product List | Glossary On
Versions: 1 2 3 4 5 6 7 8 9 10 11 12 13 14 15 16 17 18 19 20 21 22 23 24 25 26 27 28 29 30 31 32 33 34 35 36 37 38 39 40 41 42 43 44 45 46 47 48 49 50
000
ASUS42 KFFC 200410
RWRGA
WEATHER ROUNDUP FOR GEORGIA
NATIONAL WEATHER SERVICE PEACHTREE CITY GA
1200 AM EDT WED SEP 20 2017

NOTE: "FAIR" INDICATES FEW OR NO CLOUDS BELOW 12,000 FEET WITH NO
SIGNIFICANT WEATHER AND/OR OBSTRUCTIONS TO VISIBILITY.

* = USE WITH CAUTION. THE STATIONS MARKED WITH AN ASTERISK MAY NOT
REPORT WEATHER SUCH AS PRECIPITATION, FOG, OR THUNDER AND ARE NOT
QUALITY CONTROLLED BY NWS.

THE REMARK "TC" DENOTES TEMPERATURE READING IN DEGREES CELSIUS.

GAZ001>058-200500-
NORTH GEORGIA

CITY           SKY/WX    TMP DP  RH WIND       PRES   REMARKS
ATLANTA        CLOUDY    76  68  76 CALM      30.00R
ATHENS         PTCLDY    71  70  96 CALM      29.99S
CHAMBLEE       PTCLDY    71  68  90 CALM      29.99S
PEACHTREE CITY CLOUDY    72  70  93 CALM      30.00R
ROME           MOCLDY    70  70 100 N3        30.00R FOG
WEST ATLANTA   PTCLDY    72  71  97 CALM      29.99R
GAINESVILLE    CLOUDY    73  68  84 CALM      30.02S
CARTERSVILLE   CLEAR     67  67 100 CALM      29.99S


CITY           SKY/WX    TMP DP  RH WIND       PRES   REMARKS
DALTON*        CLEAR     68  66  94 N3        30.03R
MARIETTA       CLEAR     73  67  82 W5        29.99S
KENNESAW*      CLEAR     73  67  81 CALM      30.01R
CANTON*        CLEAR     70  70 100 CALM      30.02R FOG
$$

GAZ059>098-102>109-200500-
CENTRAL GEORGIA

CITY           SKY/WX    TMP DP  RH WIND       PRES   REMARKS
AUGUSTA-BUSH   PTCLDY    71  70  96 CALM      29.96S
AUGUSTA-DANIEL PTCLDY    77  70  79 SE5       29.98S
COLUMBUS       CLOUDY    75  72  90 W5        29.98R
MACON          CLOUDY    73  70  90 CALM      29.98R
ROBINS AFB     CLOUDY    74  72  92 CALM      29.97S


CITY           SKY/WX    TMP DP  RH WIND       PRES   REMARKS
LAGRANGE*      CLOUDY    72  71  98 CALM      30.01R
SYLVANIA*      CLEAR     75  73  92 CALM      29.99S
MILLEDGEVILLE* CLOUDY    73  72  94 CALM      29.97S
$$

GAZ099>101-110>166-200500-
SOUTH GEORGIA

CITY           SKY/WX    TMP DP  RH WIND       PRES   REMARKS
SAVANNAH       CLEAR     75  71  87 S5        29.99R
VALDOSTA       PTCLDY    74  72  93 S3        29.98S
ALMA           CLEAR     76  70  82 S6        29.98S
ST SIMONS      CLEAR     81  73  76 S7        29.99S
FT STEWART     CLEAR     75  69  84 CALM      29.96S
ALBANY         MOCLDY    76  72  87 CALM      30.00R
HUNTER AFB     CLEAR     77  72  84 S3        29.96S
MOODY AFB      PTCLDY    75  71  88 CALM      29.97S
BRUNSWICK      CLEAR     79  70  73 S3        30.00S


CITY           SKY/WX    TMP DP  RH WIND       PRES   REMARKS
BAINBRIDGE*    CLEAR     79  77  94 CALM      29.98S
MOULTRIE*      MOCLDY    77  72  83 CALM      30.00S
VIDALIA*       CLEAR     77  70  78 S6        29.98S
WAYCROSS*      CLEAR     76  70  80 S6        29.99S
DOUGLAS*       CLEAR     72  70  94 SE3       30.00S
$$



USA.gov is the U.S. government's official web portal to all federal, state and local government web resources and services.